Main page
METAR-TAF:

METAR-TAF

Airports :

Rasht Airport

Rasht, Iran

latitude: 37-12N, longitude: 049-38E, elevation: -7 m

Current weather observation

The report was made 55 minutes ago, at 01:00 UTC
Calm wind
Temperature 13°C
Humidity 82%
Pressure 1022 hPa
Visibility 10 km or more
Few clouds at a height of 1500 ft, Cumulonimbus.
Scattered clouds at a height of 2000 ft
Overcast at a height of 8000 ft

METAR: OIGG 190100Z 00000KT 9999 FEW015CB SCT020 OVC080 13/10 Q1022

Time: 05:25 (01:55 UTC)


TAF: missing

Weather observations and forecasts of more than 4000 airports (METAR and TAF reports).

The available stations are represented by yellow and red dots on the map.

Hover mouse over dot to see the name of the station.

Then click to see weather observations and forecasts.

To change the map : click on the green buttons with a black cross to zoom in, on the green button with a dash to zoom out, or on the green arrows for adjacent maps.


METAR-TAF: